FW8254 Weather Reports


time (UTC)temp
C
wind
direction
speed
KPH
gust
KPH
rain 1hr
cm
rain 24hr
cm
rain mn
cm
humidity
%
barometer
mb
20260507085517 19 28 0.0 1.6 0.00 0.28 0.28 97 1006.7
20260507085014 19 25 1.6 1.6 0.00 0.28 0.28 97 1006.9
20260507084510 19 12 1.6 3.2 0.00 0.28 0.28 97 1006.8
20260507084008 19 16 3.2 3.2 0.00 0.28 0.28 97 1006.8
20260507083504 19 21 1.6 3.2 0.18 0.28 0.28 97 1006.5
20260507083001 19 328 4.8 4.8 0.00 0.25 0.25 97 1006.7
20260507082457 19 15 1.6 3.2 0.00 0.25 0.25 97 1006.4
20260507081953 19 8 1.6 3.2 0.00 0.25 0.25 97 1006.5
20260507081449 19 12 3.2 3.2 0.00 0.25 0.25 97 1006.4
20260507080947 19 353 3.2 3.2 0.00 0.25 0.25 97 1006.3
20260507080443 19 16 1.6 1.6 0.00 0.25 0.25 97 1006.2
20260507075938 19 351 3.2 3.2 0.00 0.25 0.25 97 1006.4
20260507075435 19 33 0.0 3.2 0.00 0.25 0.25 97 1006.4
20260507074931 19 32 1.6 3.2 0.00 0.25 0.25 97 1006.6
20260507074428 19 339 3.2 4.8 0.00 0.25 0.25 97 1006.5
20260507073926 18 9 1.6 3.2 0.00 0.25 0.25 97 1006.6
20260507073422 19 35 0.0 4.8 0.00 0.25 0.25 97 1006.6
20260507072919 18 43 0.0 1.6 0.00 0.25 0.25 97 1006.6
20260507072416 18 32 0.0 1.6 0.00 0.25 0.25 97 1006.6
20260507071914 18 33 0.0 0.0 0.00 0.25 0.25 97 1006.4
20260507071411 18 34 0.0 0.0 0.00 0.25 0.25 97 1006.5
20260507070907 18 34 0.0 0.0 0.00 0.25 0.25 97 1006.7
20260507070405 19 34 0.0 0.0 0.00 0.25 0.25 97 1006.6
20260507065901 19 34 0.0 0.0 0.00 0.25 0.25 97 1006.6
20260507065358 19 34 0.0 0.0 0.00 0.25 0.25 97 1006.7
20260507064855 19 17 1.6 1.6 0.00 0.25 0.25 97 1006.8
20260507064353 19 24 1.6 1.6 0.00 0.25 0.25 97 1006.8
20260507063851 19 18 1.6 3.2 0.00 0.25 0.25 97 1007.1
20260507063348 19 28 0.0 0.0 0.00 0.25 0.25 97 1006.9
20260507062844 19 22 1.6 1.6 0.00 0.25 0.25 97 1006.8
20260507062341 19 40 0.0 0.0 0.00 0.25 0.25 97 1006.7
20260507061839 19 41 0.0 0.0 0.00 0.25 0.25 97 1006.7
20260507061337 19 41 0.0 0.0 0.00 0.25 0.25 97 1006.8
20260507060835 19 41 0.0 0.0 0.00 0.25 0.25 97 1006.7
20260507060332 19 41 0.0 0.0 0.00 0.25 0.25 97 1006.8
20260507055828 19 41 0.0 0.0 0.00 0.25 0.25 96 1006.6
20260507055323 19 41 0.0 0.0 0.00 0.25 0.25 96 1006.4
20260507054820 19 41 0.0 0.0 0.00 0.25 0.25 96 1006.7
20260507054316 19 41 0.0 0.0 0.00 0.25 0.25 96 1006.8
20260507053814 19 41 0.0 0.0 0.00 0.25 0.25 96 1006.8
20260507053312 19 43 0.0 0.0 0.00 0.25 0.25 96 1006.8
20260507052811 19 44 0.0 1.6 0.00 0.25 0.25 96 1006.6
20260507052307 19 42 0.0 1.6 0.00 0.25 0.25 96 1006.9
20260507051805 19 76 0.0 3.2 0.00 0.25 0.25 96 1006.8
20260507051302 19 54 0.0 1.6 0.00 0.25 0.25 96 1006.7
20260507050759 20 61 0.0 1.6 0.00 0.25 0.25 96 1007.0
20260507050255 20 61 0.0 1.6 0.00 0.25 0.25 96 1007.2
20260507045752 20 61 0.0 1.6 0.00 0.25 0.25 95 1007.5
20260507045249 20 61 0.0 1.6 0.00 0.25 0.25 95 1007.1
20260507044746 20 61 0.0 1.6 0.00 0.25 0.25 95 1007.3
20260507044242 20 61 0.0 1.6 0.00 0.25 0.25 95 1007.3
20260507043738 20 61 0.0 3.2 0.00 0.25 0.25 95 1007.5
20260507043235 20 61 1.6 1.6 0.00 0.25 0.25 95 1007.5
20260507042731 20 62 1.6 3.2 0.00 0.25 0.25 94 1007.5
20260507042226 20 68 1.6 3.2 0.30 0.25 0.25 94 1007.9
20260507041724 20 79 1.6 3.2 0.43 0.25 0.25 94 1008.1
20260507041220 20 52 0.0 0.0 1.02 0.20 0.20 94 1008.3
20260507040717 20 53 0.0 0.0 1.37 0.18 0.18 93 1008.5
20260507040213 20 58 0.0 0.0 0.79 0.03 0.03 93 1008.7
20260507035709 20 58 0.0 0.0 0.48 1.42 1.42 93 1008.5
20260507035205 20 59 1.6 1.6 0.30 1.37 1.37 93 1008.5
20260507034702 20 56 0.0 0.0 0.43 1.35 1.35 92 1008.7
20260507034200 20 56 0.0 0.0 0.48 1.32 1.32 92 1009.2
20260507033658 20 58 0.0 1.6 0.30 1.27 1.27 92 1008.9
20260507033155 20 57 0.0 0.0 0.43 1.24 1.24 91 1008.9
20260507032652 20 57 0.0 1.6 0.61 1.22 1.22 91 1008.8
20260507032148 20 56 0.0 0.0 0.66 1.17 1.17 91 1009.2
20260507031645 20 55 0.0 0.0 0.48 1.12 1.12 91 1009.4
20260507031141 20 58 0.0 1.6 0.61 1.07 1.07 90 1009.6
20260507030638 20 37 0.0 0.0 0.89 1.04 1.04 90 1010.3
20260507030136 20 355 3.2 3.2 0.71 0.97 0.97 90 1010.5
20260507025633 20 33 0.0 0.0 0.97 0.89 0.89 90 1010.5
20260507025130 20 40 0.0 0.0 0.79 0.84 0.84 89 1009.8
20260507024628 20 33 0.0 3.2 0.61 0.74 0.74 88 1010.2
20260507024125 20 44 0.0 3.2 0.79 0.71 0.71 88 1010.1
20260507023620 20 285 6.4 11.3 0.89 0.64 0.64 86 1010.1
20260507023118 20 291 9.7 12.9 2.59 0.58 0.58 84 1010.0
20260507022615 21 257 12.9 16.1 2.46 0.48 0.48 82 1010.1
20260507022110 22 338 4.8 16.1 0.79 0.15 0.15 77 1010.0
20260507021607 23 298 8.0 8.0 0.43 0.08 0.08 72 1008.7
20260507021103 25 25 1.6 1.6 0.13 0.03 0.03 66 1007.6
20260507020601 26 24 1.6 1.6 0.00 0.00 0.00 58 1007.4
20260507020057 26 21 0.0 1.6 0.00 0.00 0.00 56 1007.1
20260507015556 26 10 1.6 1.6 0.00 0.00 0.00 54 1007.1
20260507015053 26 14 1.6 1.6 0.00 0.00 0.00 54 1007.1
20260507014549 26 11 1.6 1.6 0.00 0.00 0.00 53 1007.0
20260507014045 26 11 1.6 3.2 0.00 0.00 0.00 54 1007.0
20260507013542 26 30 0.0 1.6 0.00 0.00 0.00 53 1006.6
20260507013039 26 28 1.6 3.2 0.00 0.00 0.00 54 1006.7
20260507012536 26 29 1.6 1.6 0.00 0.00 0.00 53 1006.5
20260507012032 26 30 0.0 0.0 0.00 0.00 0.00 53 1006.5
20260507011530 26 30 0.0 1.6 0.00 0.00 0.00 53 1006.4
20260507011026 26 30 0.0 1.6 0.00 0.00 0.00 53 1006.6
20260507010520 27 45 1.6 3.2 0.00 0.00 0.00 53 1006.5
20260507010017 27 47 1.6 3.2 0.00 0.00 0.00 53 1006.2
20260507005515 27 44 1.6 1.6 0.00 0.00 0.00 52 1006.2
20260507005011 27 45 0.0 1.6 0.00 0.00 0.00 52 1006.4
20260507004508 27 48 0.0 1.6 0.00 0.00 0.00 52 1006.4
20260507004006 27 49 1.6 1.6 0.00 0.00 0.00 52 1006.5
20260507003501 27 38 0.0 1.6 0.00 0.00 0.00 51 1006.5
20260507002955 27 26 0.0 0.0 0.00 0.00 0.00 52 1006.6
20260507002453 27 21 0.0 1.6 0.00 0.00 0.00 51 1006.6
20260507001949 27 23 1.6 1.6 0.00 0.00 0.00 51 1006.8
20260507001446 27 33 1.6 1.6 0.00 0.00 0.00 50 1006.7
20260507000943 27 33 1.6 3.2 0.00 0.00 0.00 50 1006.8
20260507000439 27 16 1.6 3.2 0.00 0.00 0.00 50 1006.5
20260506235934 28 47 1.6 3.2 0.00 0.00 0.00 49 1006.5
20260506235432 28 59 0.0 1.6 0.00 0.00 0.00 49 1006.4
20260506234927 28 40 0.0 1.6 0.00 0.00 0.00 49 1006.5
20260506234426 28 30 1.6 3.2 0.00 0.00 0.00 50 1006.6
20260506233923 28 53 0.0 1.6 0.00 0.00 0.00 48 1006.4
20260506233419 28 334 1.6 4.8 0.00 0.00 0.00 48 1006.7
20260506232916 28 21 3.2 3.2 0.00 0.00 0.00 48 1006.7
20260506232412 28 288 4.8 8.0 0.00 0.00 0.00 47 1006.9
20260506231908 28 310 6.4 8.0 0.00 0.00 0.00 48 1006.8
20260506231406 29 295 4.8 8.0 0.00 0.00 0.00 47 1006.6
20260506230903 29 7 3.2 4.8 0.00 0.00 0.00 47 1006.7
20260506230400 29 117 3.2 3.2 0.00 0.00 0.00 46 1006.5
20260506225856 29 277 8.0 9.7 0.00 0.00 0.00 46 1006.4
20260506225353 29 269 4.8 8.0 0.00 0.00 0.00 46 1006.6
20260506224850 29 337 4.8 9.7 0.00 0.00 0.00 46 1006.4
20260506224348 29 301 8.0 12.9 0.00 0.00 0.00 46 1006.8
20260506223844 29 323 4.8 4.8 0.00 0.00 0.00 46 1006.5
20260506223339 29 314 9.7 12.9 0.00 0.00 0.00 46 1006.6
20260506222836 29 312 6.4 8.0 0.00 0.00 0.00 46 1006.6
20260506222331 30 305 8.0 12.9 0.00 0.00 0.00 46 1006.6
20260506221830 29 251 6.4 8.0 0.00 0.00 0.00 47 1006.7
20260506221327 29 295 6.4 9.7 0.00 0.00 0.00 45 1006.7
20260506220825 29 321 4.8 8.0 0.00 0.00 0.00 46 1006.8
20260506220320 29 343 4.8 8.0 0.00 0.00 0.00 47 1006.9
20260506215817 28 296 4.8 4.8 0.00 0.00 0.00 47 1006.8
20260506215312 28 300 4.8 9.7 0.00 0.00 0.00 47 1006.9
20260506214808 28 248 9.7 9.7 0.00 0.00 0.00 47 1007.0
20260506214305 29 286 8.0 14.5 0.00 0.00 0.00 46 1006.7
20260506213804 29 268 12.9 22.5 0.00 0.00 0.00 46 1007.0
20260506213300 28 285 9.7 11.3 0.00 0.00 0.00 47 1006.9
20260506212758 29 290 9.7 14.5 0.00 0.00 0.00 47 1006.9
20260506212253 29 265 11.3 12.9 0.00 0.00 0.00 46 1007.2
20260506211748 29 224 8.0 11.3 0.00 0.00 0.00 44 1007.1
20260506211245 29 289 6.4 16.1 0.00 0.00 0.00 46 1006.9
20260506210742 29 277 11.3 12.9 0.00 0.00 0.00 45 1007.2
20260506210239 29 282 11.3 17.7 0.00 0.00 0.00 46 1007.3
20260506205736 29 305 9.7 12.9 0.00 0.00 0.00 45 1007.1
20260506205232 28 278 11.3 29.0 0.00 0.00 0.00 46 1007.1
20260506204729 29 271 19.3 25.7 0.00 0.00 0.00 46 1007.3
20260506204226 30 306 11.3 16.1 0.00 0.00 0.00 47 1007.2
20260506203724 29 33 4.8 4.8 0.00 0.00 0.00 47 1007.1
20260506203221 29 344 4.8 11.3 0.00 0.00 0.00 48 1007.1
20260506202719 29 307 6.4 11.3 0.00 0.00 0.00 49 1007.6
20260506202215 28 275 6.4 9.7 0.00 0.00 0.00 50 1007.4
20260506201712 28 301 6.4 11.3 0.00 0.00 0.00 50 1007.8
20260506201209 28 26 6.4 14.5 0.00 0.00 0.00 51 1007.9
20260506200706 28 56 1.6 3.2 0.00 0.00 0.00 49 1007.8
20260506200203 28 293 6.4 22.5 0.00 0.00 0.00 50 1007.7
20260506195659 28 277 8.0 12.9 0.00 0.00 0.00 50 1007.7
20260506195155 28 272 4.8 17.7 0.00 0.00 0.00 50 1007.8
20260506194653 28 140 4.8 9.7 0.00 0.00 0.00 48 1007.9
20260506194149 28 287 8.0 12.9 0.00 0.00 0.00 50 1008.3
20260506193647 27 289 8.0 11.3 0.00 0.00 0.00 49 1008.5
20260506193143 27 291 6.4 12.9 0.00 0.00 0.00 50 1008.7
20260506192640 27 284 8.0 12.9 0.00 0.00 0.00 50 1009.0
20260506192136 27 274 12.9 16.1 0.00 0.00 0.00 50 1008.6
20260506191633 27 34 3.2 9.7 0.00 0.00 0.00 50 1008.6
20260506191129 27 297 8.0 11.3 0.00 0.00 0.00 49 1008.7
20260506190627 27 291 4.8 9.7 0.00 0.00 0.00 50 1008.7
20260506190123 26 314 4.8 11.3 0.00 0.00 0.00 52 1009.1
20260506185621 26 286 9.7 12.9 0.00 0.00 0.00 50 1009.1
20260506185117 26 280 6.4 11.3 0.00 0.00 0.00 52 1009.0
20260506184614 26 334 4.8 9.7 0.00 0.00 0.00 51 1008.9
20260506184111 26 262 8.0 14.5 0.00 0.00 0.00 54 1009.0
20260506183608 26 298 8.0 14.5 0.00 0.00 0.00 52 1008.9
20260506183104 26 308 6.4 8.0 0.00 0.00 0.00 52 1009.1
20260506182602 26 333 4.8 12.9 0.00 0.00 0.00 52 1009.0
20260506182058 25 296 4.8 4.8 0.00 0.00 0.00 55 1009.3
20260506181556 25 279 4.8 9.7 0.00 0.00 0.00 58 1009.7
20260506181053 25 279 8.0 11.3 0.00 0.00 0.00 58 1009.8
20260506180550 25 237 6.4 11.3 0.00 0.00 0.00 63 1010.1
20260506180047 24 12 1.6 4.8 0.00 0.00 0.00 64 1010.1
20260506175543 24 304 8.0 9.7 0.00 0.00 0.00 64 1010.1
20260506175039 24 4 1.6 4.8 0.00 0.00 0.00 65 1010.1
20260506174538 23 321 4.8 8.0 0.00 0.00 0.00 65 1010.2
20260506174033 23 312 6.4 9.7 0.00 0.00 0.00 67 1010.5
20260506173532 23 263 6.4 9.7 0.00 0.00 0.00 65 1010.9
20260506173028 23 281 8.0 9.7 0.00 0.00 0.00 64 1010.8
20260506172526 23 270 9.7 12.9 0.00 0.00 0.00 68 1010.9
20260506172022 23 246 9.7 17.7 0.00 0.00 0.00 65 1010.9
20260506171519 23 278 8.0 9.7 0.00 0.00 0.00 66 1010.8
20260506171017 23 102 4.8 9.7 0.00 0.00 0.00 67 1011.0
20260506170514 23 337 4.8 9.7 0.00 0.00 0.00 67 1010.7
20260506170006 22 27 3.2 8.0 0.00 0.00 0.00 68 1010.7
20260506165504 22 315 6.4 9.7 0.00 0.00 0.00 69 1011.0
20260506165000 22 264 6.4 9.7 0.00 0.00 0.00 69 1011.1
20260506164456 22 243 9.7 11.3 0.00 0.00 0.00 70 1011.4
20260506163954 22 312 6.4 11.3 0.00 0.00 0.00 70 1011.5
20260506163449 22 297 6.4 8.0 0.00 0.00 0.00 70 1011.7
20260506162944 22 299 4.8 9.7 0.00 0.00 0.00 70 1011.5
20260506162442 22 268 6.4 9.7 0.00 0.00 0.00 70 1011.5
20260506161934 22 261 9.7 17.7 0.00 0.00 0.00 70 1011.7
20260506161432 22 257 9.7 14.5 0.00 0.00 0.00 70 1011.8
20260506160929 22 271 4.8 8.0 0.00 0.00 0.00 70 1011.5
20260506160426 22 266 6.4 12.9 0.00 0.00 0.00 69 1011.7
20260506155923 22 276 8.0 11.3 0.00 0.00 0.00 70 1011.8
20260506155420 22 255 8.0 9.7 0.00 0.00 0.00 70 1011.4
20260506153542 22 284 6.4 9.7 0.00 0.00 0.00 70 1011.2
20260506153040 22 277 9.7 14.5 0.00 0.00 0.00 71 1011.3
20260506152537 22 302 6.4 11.3 0.00 0.00 0.00 70 1011.2
20260506152035 21 275 6.4 9.7 0.00 0.00 0.00 71 1011.2
20260506151532 21 294 8.0 11.3 0.00 0.00 0.00 72 1011.1
20260506151029 21 293 4.8 9.7 0.00 0.00 0.00 72 1011.1
20260506150526 21 263 6.4 8.0 0.00 0.00 0.00 72 1011.1
20260506150023 21 302 6.4 8.0 0.00 0.00 0.00 72 1011.1
20260506145519 21 271 4.8 8.0 0.00 0.00 0.00 73 1010.9
20260506145017 21 303 6.4 8.0 0.00 0.00 0.00 73 1010.9
20260506144513 21 273 4.8 11.3 0.00 0.00 0.00 73 1010.9
20260506144011 21 309 4.8 8.0 0.00 0.00 0.00 72 1011.0
20260506143508 21 337 3.2 4.8 0.00 0.00 0.00 73 1011.0
20260506143007 20 301 6.4 9.7 0.00 0.00 0.00 73 1010.9
20260506142504 20 317 3.2 11.3 0.00 0.00 0.00 73 1011.1
20260506142002 20 306 4.8 11.3 0.00 0.00 0.00 74 1011.2
20260506141459 20 304 6.4 9.7 0.00 0.00 0.00 74 1011.0
20260506140958 20 300 6.4 8.0 0.00 0.00 0.00 73 1011.1
20260506140454 20 298 9.7 11.3 0.00 0.00 0.00 74 1011.1
20260506135951 20 330 4.8 9.7 0.00 0.00 0.00 74 1011.2
20260506135449 20 316 4.8 8.0 0.00 0.00 0.00 75 1011.2
20260506134944 20 349 3.2 8.0 0.00 0.00 0.00 74 1011.3
20260506134440 20 310 6.4 8.0 0.00 0.00 0.00 74 1011.2
20260506133938 19 301 8.0 8.0 0.00 0.00 0.00 75 1011.2
20260506133435 19 317 6.4 8.0 0.00 0.00 0.00 75 1011.2
20260506132931 19 318 4.8 8.0 0.00 0.00 0.00 75 1011.3
20260506132429 19 268 4.8 8.0 0.00 0.00 0.00 75 1011.3
20260506131926 19 294 4.8 8.0 0.00 0.00 0.00 75 1010.8
20260506131422 19 324 4.8 9.7 0.00 0.00 0.00 75 1011.0
20260506130920 18 335 4.8 9.7 0.00 0.00 0.00 76 1011.0
20260506130416 18 356 4.8 4.8 0.00 0.00 0.00 76 1010.8
20260506125914 18 45 1.6 3.2 0.00 0.00 0.00 76 1010.8
20260506125412 18 30 1.6 1.6 0.00 0.00 0.00 76 1011.0
20260506124910 18 359 3.2 3.2 0.00 0.00 0.00 76 1011.1
20260506124407 18 19 1.6 1.6 0.00 0.00 0.00 76 1011.1
20260506123905 18 29 0.0 1.6 0.00 0.00 0.00 77 1010.9
20260506123403 17 29 0.0 0.0 0.00 0.00 0.00 77 1011.0
20260506122900 17 31 0.0 1.6 0.00 0.00 0.00 77 1011.1
20260506122356 17 32 0.0 0.0 0.00 0.00 0.00 77 1011.1
20260506121855 17 29 1.6 3.2 0.00 0.00 0.00 77 1011.0
20260506121351 17 41 0.0 0.0 0.00 0.00 0.00 78 1010.8
20260506120848 17 41 0.0 0.0 0.00 0.00 0.00 78 1011.0
20260506120346 17 45 0.0 1.6 0.00 0.00 0.00 78 1010.9
20260506115843 17 51 0.0 0.0 0.00 0.00 0.00 78 1010.7
20260506115341 17 51 0.0 0.0 0.00 0.00 0.00 78 1010.8
20260506114839 17 51 0.0 0.0 0.00 0.00 0.00 78 1010.7
20260506114336 17 51 0.0 1.6 0.00 0.00 0.00 78 1010.5
20260506113835 17 51 0.0 1.6 0.00 0.00 0.00 78 1010.7
20260506113332 17 49 1.6 1.6 0.00 0.00 0.00 78 1010.6
20260506112829 17 45 0.0 0.0 0.00 0.00 0.00 78 1010.5
20260506112326 17 35 1.6 1.6 0.00 0.00 0.00 77 1010.3
20260506111823 17 44 0.0 1.6 0.00 0.00 0.00 77 1009.9
20260506111322 17 43 0.0 1.6 0.00 0.00 0.00 77 1009.8
20260506110819 17 84 1.6 3.2 0.00 0.00 0.00 77 1009.5
20260506110315 16 45 0.0 3.2 0.00 0.00 0.00 77 1009.6
20260506105812 17 35 0.0 1.6 0.00 0.00 0.00 77 1009.6
20260506105309 17 52 0.0 1.6 0.00 0.00 0.00 77 1009.5
20260506104807 17 60 0.0 1.6 0.00 0.00 0.00 77 1009.6
20260506104304 17 52 0.0 3.2 0.00 0.00 0.00 77 1009.9
20260506103801 16 43 0.0 1.6 0.00 0.00 0.00 77 1009.8
20260506103259 16 26 3.2 3.2 0.00 0.00 0.00 77 1009.5
20260506102756 16 31 0.0 1.6 0.00 0.00 0.00 77 1009.7
20260506102254 16 53 0.0 1.6 0.00 0.00 0.00 77 1009.5
20260506101751 16 45 0.0 0.0 0.00 0.00 0.00 78 1009.3
20260506101247 16 31 0.0 0.0 0.00 0.00 0.00 78 1009.4
20260506100745 16 51 0.0 1.6 0.00 0.00 0.00 78 1009.4
20260506100243 16 37 0.0 0.0 0.00 0.00 0.00 78 1009.6
20260506095742 16 35 0.0 3.2 0.00 0.00 0.00 78 1009.4
20260506095238 16 38 1.6 1.6 0.00 0.00 0.00 78 1009.5
20260506094734 16 50 0.0 0.0 0.00 0.00 0.00 79 1009.4
20260506094233 16 50 0.0 1.6 0.00 0.00 0.00 79 1009.6
20260506093731 16 50 0.0 0.0 0.00 0.00 0.00 79 1009.5
20260506093228 16 50 0.0 1.6 0.00 0.00 0.00 79 1009.5
20260506092726 16 50 0.0 1.6 0.00 0.00 0.00 79 1009.5
20260506092224 16 50 0.0 0.0 0.00 0.00 0.00 79 1009.8
20260506091721 16 50 0.0 0.0 0.00 0.00 0.00 79 1009.9
20260506091218 16 50 0.0 0.0 0.00 0.00 0.00 79 1010.1
20260506090716 16 50 0.0 0.0 0.00 0.00 0.00 79 1010.1
20260506090212 16 50 0.0 0.0 0.00 0.00 0.00 79 1010.3
20260506085709 16 50 0.0 0.0 0.00 0.00 0.00 78 1010.0